Marianna, FL

2:41 PM CDT on September 24, 2017 (GMT -0500)
Marianna Municipal

Weather History for KMAI - September, 2012

Change the Weather History Date:

Saturday, September 1, 2012

  Actual Average Record
Temperature  
Mean Temperature 84 °F 81 °F  
Max Temperature 94 °F 90 °F 99 °F (2011)
Min Temperature 73 °F 71 °F 64 °F (1999)
Degree Days  
Heating Degree Days 0    
Month to date heating degree days 0  
Since 1 July heating degree days 0  
Cooling Degree Days 19    
Month to date cooling degree days 19  
Year to date cooling degree days 2227  
Growing Degree Days 33 (Base 50)    
Moisture  
Dew Point 73 °F    
Average Humidity 71    
Maximum Humidity 93    
Minimum Humidity 49    
Precipitation  
Precipitation 0.00 in 0.14 in 0.62 in (2000)
Month to date precipitation 0.00 0.14  
Year to date precipitation 49.06 38.47  
Sea Level Pressure  
Sea Level Pressure 30.12 in    
Wind  
Wind Speed 2 mph (SSE)    
Max Wind Speed 18 mph    
Max Gust Speed 24 mph    
Visibility 10 miles    
Events Thunderstorm    
T = Trace of Precipitation, MM = Missing Value Source: NWS Daily Summary

Daily Weather History Graph

Daily Weather History Graph

Search for Another Location

Airport or City:

Trip Planner

Search our weather history database for the weather conditions in past years. The results will help you decide how hot, cold, wet, or windy it might be!

Date:

Astronomy

Sep. 01, 2012 Rise Set
Actual Time 6:17 AM CDT 7:03 PM CDT
Civil Twilight 5:52 AM CDT 7:27 PM CDT
Nautical Twilight 5:23 AM CDT 7:56 PM CDT
Astronomical Twilight 4:54 AM CDT 8:26 PM CDT
Moon 7:30 PM CDT (9/1) 7:15 AM CDT (9/1)
Length of Visible Light 13h 35m
Length of Day
12h 45m
Full, 99% of the Moon is Illuminated
Sep 1
Full
Sep 8
Last Quarter
Sep 15
New
Sep 22
First Quarter
Sep 29
Full

Hourly Weather History & Observations

Time (CDT) Temp. Heat Index Dew Point Humidity Pressure Visibility Wind Dir Wind Speed Gust Speed Precip Events Conditions
12:53 AM 75.9 °F - 72.0 °F 87% 30.13 in 10.0 mi Calm Calm - N/A   Clear
1:53 AM 75.0 °F - 72.0 °F 90% 30.12 in 10.0 mi Calm Calm - N/A   Clear
2:53 AM 73.9 °F - 72.0 °F 93% 30.12 in 10.0 mi Calm Calm - N/A   Clear
3:53 AM 73.9 °F - 72.0 °F 93% 30.12 in 10.0 mi Calm Calm - N/A   Clear
4:53 AM 73.0 °F - 71.1 °F 93% 30.13 in 10.0 mi Calm Calm - N/A   Clear
5:53 AM 73.0 °F - 71.1 °F 93% 30.14 in 10.0 mi Calm Calm - N/A   Clear
6:53 AM 73.9 °F - 71.1 °F 91% 30.16 in 10.0 mi Calm Calm - N/A   Clear
7:53 AM 78.1 °F - 73.0 °F 84% 30.17 in 10.0 mi ENE 3.5 mph - N/A   Clear
8:53 AM 82.0 °F 87.9 °F 73.9 °F 76% 30.18 in 10.0 mi NNE 3.5 mph - N/A   Clear
9:53 AM 84.9 °F 91.4 °F 73.0 °F 67% 30.18 in 10.0 mi ENE 3.5 mph - N/A   Clear
10:53 AM 88.0 °F 96.5 °F 73.9 °F 63% 30.18 in 10.0 mi Variable 3.5 mph - N/A   Scattered Clouds
11:12 AM 89.6 °F 98.2 °F 73.4 °F 59% 30.19 in 10.0 mi Calm Calm - N/A   Mostly Cloudy
11:31 AM 89.6 °F 98.2 °F 73.4 °F 59% 30.18 in 10.0 mi NNE 4.6 mph - N/A   Scattered Clouds
11:53 AM 88.0 °F 95.6 °F 73.0 °F 61% 30.17 in 10.0 mi Calm Calm - N/A   Scattered Clouds
12:53 PM 90.0 °F 97.9 °F 73.0 °F 57% 30.15 in 10.0 mi Calm Calm - N/A   Unknown
1:53 PM 91.9 °F 98.4 °F 71.1 °F 50% 30.12 in 10.0 mi North 4.6 mph - N/A   Scattered Clouds
2:53 PM 93.0 °F 100.7 °F 72.0 °F 50% 30.08 in 10.0 mi Calm Calm - N/A   Scattered Clouds
3:53 PM 91.9 °F 98.4 °F 71.1 °F 50% 30.06 in 10.0 mi Calm Calm - N/A   Partly Cloudy
4:53 PM 91.0 °F 97.6 °F 71.1 °F 52% 30.06 in 10.0 mi Calm Calm - N/A   Mostly Cloudy
5:34 PM 84.2 °F 90.9 °F 73.4 °F 70% 30.08 in 10.0 mi South 13.8 mph - N/A Thunderstorm Scattered Clouds
5:49 PM 84.2 °F 90.9 °F 73.4 °F 70% 30.08 in 10.0 mi SSW 9.2 mph - N/A   Partly Cloudy
5:53 PM 82.9 °F 88.8 °F 73.0 °F 72% 30.07 in 10.0 mi SSW 10.4 mph - N/A   Partly Cloudy
6:53 PM 80.1 °F 84.5 °F 73.9 °F 81% 30.08 in 10.0 mi SSW 3.5 mph - N/A   Clear
7:53 PM 79.0 °F - 73.0 °F 82% 30.08 in 10.0 mi SW 3.5 mph - N/A   Clear
8:53 PM 79.0 °F - 73.0 °F 82% 30.10 in 10.0 mi Calm Calm - N/A   Clear
9:53 PM 78.1 °F - 73.0 °F 84% 30.10 in 10.0 mi South 3.5 mph - N/A   Clear
10:53 PM 77.0 °F - 73.0 °F 88% 30.09 in 10.0 mi Calm Calm - N/A   Clear
11:53 PM 77.0 °F - 73.0 °F 88% 30.09 in 10.0 mi SSE 4.6 mph - N/A   Clear